#timestamp,LO_Frequency,Hit,StdDev 
1633651215.9,286047000.9,N
1633651235.7,286047000.7,N
1633651255.5,286047000.9,N
1633651275.4,286047002.7,N
1633651295.2,286047002.4,N
1633651315.0,286047002.4,N
1633651315.9,286047002.4,N
1633651335.8,286047002.2,N
1633651355.6,286047002.4,N
1633651375.4,286046999.7,N
1633651395.3,286046999.9,N
1633651415.1,286047000.4,N
1633651416.0,286047000.4,N
1633651435.8,286047000.0,N
1633651455.7,286047000.6,N
1633651475.5,286047000.4,N
1633651495.3,286047000.0,N
1633651515.2,286047002.4,N
1633651535.9,286047000.2,N
1633651555.7,286047000.7,N
1633651575.6,286047000.4,N
1633651595.4,286046999.7,N
1633651615.2,286047002.2,N
1633651635.0,286047002.8,N
1633651635.9,286047002.8,N
1633651655.8,286047002.0,N
1633651675.6,286047002.6,N
1633651695.4,286047000.2,N
1633651715.3,286047000.5,N
1633651735.1,286047000.8,N
1633651755.8,286047000.7,N
1633651775.7,286046999.0,N
1633651795.5,286046998.3,N
1633651815.3,286046998.1,N
1633651835.2,286046998.3,N
1633651855.0,286046998.3,N
1633651855.9,286046998.3,N
1633651875.7,286046999.2,N
1633651895.6,286046998.6,N
1633651915.4,286046998.8,N
1633651935.2,286047000.8,N
1633651955.1,286046997.2,N
1633651956.0,286046997.2,N
1633651975.8,286046996.5,N
1633651995.6,286046998.9,N
1633652015.5,286046999.0,N
1633652035.3,286046998.8,N
1633652055.1,286046996.9,N
1633652075.9,286046996.8,N
1633652095.7,286046999.5,N
1633652115.5,286046996.9,N
1633652135.4,286046997.6,N
1633652155.2,286046995.0,N
1633652175.0,286046995.4,N
1633652175.9,286046995.4,N
1633652195.8,286046995.8,N
1633652215.6,286046995.6,N
1633652235.4,286046995.2,N
1633652255.3,286046998.0,N
1633652275.1,286046995.7,N
1633652276.0,286046995.7,N
1633652295.8,286046995.4,Y
1633652315.7,286046996.7,P
1633652335.5,286046997.6,P
1633652355.3,286046997.7,P
1633652375.2,286046997.4,Y
1633652395.9,286046998.1,P
1633652415.7,286046998.6,P
1633652435.6,286046998.2,P
1633652485.4,286046996.5,E
1633652495.4,286047000.5,N
1633652515.2,286047001.4,P
1633652535.0,286047002.8,P
1633652535.9,286047002.8,N
1633652555.8,286047002.6,N
1633652575.6,286047002.3,N
1633652595.4,286047000.1,N
1633652615.2,286047000.1,N
1633652635.1,286047000.5,N
1633652636.0,286047000.5,N
1633652655.8,286046998.5,N
1633652675.6,286046999.1,N
1633652695.5,286046998.2,N
1633652715.3,286046998.8,N
1633652735.1,286046998.5,N
1633652755.9,286046999.1,N
1633652775.7,286046996.6,N
1633652795.5,286046996.5,N
1633652815.4,286046999.0,N
1633652835.2,286046999.1,N
1633652855.0,286046997.0,N
1633652855.9,286046997.0,N
1633652875.8,286046996.7,N
1633652895.6,286046997.3,N
1633652915.4,286046995.0,N
1633652935.3,286046995.2,N
1633652955.1,286046996.4,N
1633652975.8,286046995.9,N
1633652995.7,286046996.2,N
1633653015.5,286046996.4,N
1633653035.3,286046996.4,N
1633653055.2,286046996.2,N
1633653075.0,286046996.2,N
1633653075.9,286046996.2,N
1633653095.7,286046994.5,N
1633653115.6,286046994.8,N
1633653135.4,286046992.1,Y
1633653155.2,286046995.7,P
1633653175.1,286046995.7,P
1633653176.0,286046995.7,P
1633653195.8,286046995.7,Y
1633653215.6,286046998.5,P
1633653235.5,286046998.1,N
1633653255.3,286046998.3,N
1633653275.1,286046998.4,N
1633653295.9,286047001.0,N
1633653315.7,286046998.2,N
1633653335.5,286047001.2,N
1633653355.4,286046999.3,N
1633653375.2,286046998.9,N
1633653395.0,286046999.5,N
1633653395.9,286046999.5,N
1633653415.8,286046997.0,N
1633653435.6,286046996.7,N
1633653455.4,286046998.0,N
1633653475.3,286046997.5,N
1633653495.1,286046997.6,N
1633653515.8,286046997.8,N
1633653535.7,286046997.9,N
1633653555.5,286046994.9,Y
1633653575.3,286046999.0,P
1633653595.2,286046998.2,P
1633653615.0,286046998.2,P
1633653615.9,286046998.2,Y
1633653635.8,286047000.3,P
1633653655.6,286046998.6,N
1633653675.4,286047000.8,N
1633653695.2,286046999.5,N
1633653715.1,286046998.2,N
1633653716.0,286046998.2,N
1633653735.8,286046999.2,N
1633653755.7,286046999.3,N
1633653775.5,286046996.7,Y
1633653795.3,286046996.7,P
1633653815.2,286046999.1,N
1633653835.9,286046999.0,N
1633653855.7,286046998.8,N
1633653875.6,286047000.8,N
1633653895.4,286046998.4,N
1633653915.2,286046999.1,N
1633653935.1,286046999.4,N
1633653936.0,286046999.4,N
1633653955.8,286046998.9,N
1633653975.6,286046996.8,Y
1633653995.5,286046998.1,P
1633654015.3,286047000.5,N
1633654035.1,286046998.1,N
1633654055.9,286046998.3,N
1633654075.7,286046998.8,N
1633654095.5,286046999.4,N
1633654115.4,286046999.2,N
1633654135.2,286046998.2,N
1633654155.0,286046998.8,N
1633654155.9,286046998.8,N
1633654175.8,286046999.5,N
1633654195.6,286047000.6,N
1633654215.4,286046998.2,N
1633654235.3,286046998.9,N
1633654255.1,286046996.9,Y
1633654256.0,286046996.9,P
1633654275.8,286046998.5,N
1633654295.7,286047001.2,N
1633654315.5,286047000.4,N
1633654335.3,286047002.7,N
1633654355.2,286047000.6,N
1633654375.9,286046998.6,N
1633654395.7,286046998.3,N
1633654415.6,286046997.8,N
1633654435.4,286046996.6,N
1633654455.2,286046998.7,N
1633654475.1,286046998.9,N
1633654476.0,286046998.9,N
1633654495.8,286046999.1,N
1633654515.6,286046999.1,N
1633654535.5,286046999.5,N
1633654555.3,286046998.3,N
1633654575.1,286046998.4,N
1633654595.9,286046997.7,N
1633654615.7,286046997.1,N
1633654635.5,286046996.6,N
1633654655.4,286046996.5,N
1633654675.2,286046999.1,N
1633654695.0,286046997.7,N
1633654695.9,286046997.7,N
1633654715.8,286046995.0,Y
1633654735.6,286046999.0,P
1633654755.4,286047001.2,P
1633654775.3,286046998.4,N
1633654795.1,286046996.7,N
1633654796.0,286046996.7,N
